User: anonymous   Login
Location: Newark
(48.8519°N, 2.3472°E)
Time: 09:33:43
(UTC+00:00)
Language:

XW-2C - Orbit

View from above orbital plane
View from above orbital plane
View from above satellite
View from above satellite

Ground track
Ground track

The orbit data is extracted from the following two-line orbital elements,

1 40906U 15049H   19293.04355566  .00000604  00000-0  35021-4 0  9991
2 40906  97.4714 293.1111 0015827 126.8191 267.4597 15.15786697225680
Epoch (UTC): 20 October 2019 01:02:43
Eccentricity: 0.0015827
inclination: 97.4714°
perigee height: 507 km
apogee height: 529 km
right ascension of ascending node: 293.1111°
argument of perigee: 126.8191°
revolutions per day: 15.15786697
mean anomaly at epoch: 267.4597°
orbit number at epoch: 22568

The dashed part of the orbit path shows where the satellite is in the earth's shadow,  

DLR